FW1093 Weather Reports


time (UTC)temp
C
wind
direction
speed
KPH
gust
KPH
rain 1hr
cm
rain 24hr
cm
rain mn
cm
humidity
%
barometer
mb
20260901121342 20 171 0.0 0.0 0.00 0.58 0.58 97 1017.0
20260901120328 20 172 0.0 0.0 0.00 0.58 0.58 97 1017.1
20260901115336 20 172 0.0 0.0 0.00 0.58 0.58 97 1017.1
20260901114327 20 172 0.0 0.0 0.00 0.58 0.58 97 1017.1
20260901113317 20 172 0.0 0.0 0.00 0.58 0.58 97 1016.9
20260901112334 20 171 0.0 0.0 0.00 0.58 0.58 97 1016.9
20260901111325 20 172 0.0 0.0 0.00 0.58 0.58 97 1017.0
20260901110314 20 172 0.0 0.0 0.00 0.58 0.58 97 1017.0
20260901105330 19 172 0.0 0.0 0.00 0.58 0.58 97 1017.0
20260901104321 19 172 0.0 0.0 0.00 0.58 0.58 97 1017.0
20260901103357 19 172 0.0 0.0 0.00 0.58 0.58 97 1016.9
20260901102328 19 172 0.0 0.0 0.00 0.58 0.58 97 1016.9
20260901101347 19 172 0.0 0.0 0.00 0.58 0.58 97 1016.5
20260901100315 19 171 0.0 0.0 0.00 0.58 0.58 97 1016.8
20260901095324 19 171 0.0 0.0 0.00 0.58 0.58 97 1016.7
20260901094343 19 171 0.0 0.0 0.00 0.58 0.58 97 1016.8
20260901093311 19 172 0.0 0.0 0.00 0.58 0.58 97 1016.8
20260901092328 19 171 0.0 0.0 0.00 0.58 0.58 97 1017.0
20260901091317 19 172 0.0 0.0 0.00 0.58 0.58 97 1016.9
20260901090326 19 172 0.0 0.0 0.00 0.58 0.58 96 1016.8
20260901085341 19 172 0.0 0.0 0.00 0.58 0.58 96 1017.1
20260901084312 19 172 0.0 0.0 0.03 0.58 0.58 96 1017.2
20260901083320 19 172 0.0 0.0 0.10 0.58 0.58 96 1017.4
20260901082336 19 172 0.0 0.0 0.15 0.58 0.58 96 1017.5
20260901081326 19 172 0.0 0.0 0.20 0.58 0.58 96 1017.5
20260901080316 19 172 0.0 0.0 0.23 0.58 0.58 96 1017.5
20260901074319 19 172 0.0 0.0 0.28 0.56 0.56 96 1017.5
20260901073356 19 172 0.0 0.0 0.30 0.48 0.48 96 1017.6
20260901072325 19 172 0.0 0.0 0.36 0.43 0.43 96 1017.6
20260901071314 19 172 0.0 0.0 0.33 0.38 0.38 96 1017.6
20260901070323 19 172 0.0 0.0 0.30 0.36 0.36 96 1017.6
20260901065313 19 172 0.0 0.0 0.30 0.33 0.33 96 1017.8
20260901064322 19 172 0.0 0.0 0.28 0.28 0.28 96 1017.8
20260901063313 19 172 0.0 0.0 0.15 0.15 0.15 96 1017.9
20260901062350 19 172 0.0 0.0 0.08 0.08 0.08 96 1018.0
20260901061317 19 172 0.0 0.0 0.05 0.05 0.05 95 1018.0
20260901060333 19 172 0.0 0.0 0.05 0.05 0.05 95 1018.1
20260901055321 19 172 0.0 0.0 0.03 0.03 0.03 95 1018.2
20260901054331 19 172 0.0 0.0 0.00 0.00 0.00 95 1018.2
20260901053321 19 172 0.0 0.0 0.00 0.00 0.00 95 1018.2
20260901052329 19 172 0.0 0.0 0.00 0.00 0.00 95 1018.2
20260901051318 19 172 0.0 0.0 0.00 0.00 0.00 95 1018.4
20260901050328 19 172 0.0 0.0 0.00 0.00 0.00 95 1018.4
20260901045317 19 172 0.0 0.0 0.00 0.00 0.00 94 1018.5
20260901044355 19 172 0.0 0.0 0.00 0.00 0.00 94 1018.5
20260901043342 19 172 0.0 0.0 0.00 0.00 0.00 94 1018.5
20260901042336 19 172 0.0 0.0 0.00 0.00 0.00 94 1018.6
20260901041328 19 172 0.0 0.0 0.00 0.00 0.00 94 1018.7
20260901040338 19 172 0.0 0.0 0.00 0.00 0.00 94 1018.7
20260901035320 19 172 0.0 0.0 0.00 0.00 0.00 94 1018.6
20260901034331 19 172 0.0 0.0 0.00 0.00 0.00 94 1018.7
20260901033318 19 172 0.0 0.0 0.00 0.00 0.00 93 1018.7
20260901032333 19 172 0.0 0.0 0.00 0.00 0.00 93 1018.8
20260901031328 19 172 0.0 0.0 0.00 0.00 0.00 93 1019.0
20260901030316 19 172 0.0 0.0 0.00 0.00 0.00 93 1019.2
20260901025326 19 172 0.0 0.0 0.00 0.03 0.00 93 1019.3
20260901024317 20 172 0.0 0.0 0.00 0.03 0.00 93 1019.3
20260901023330 20 172 0.0 0.0 0.00 0.03 0.00 93 1019.2
20260901022320 20 172 0.0 0.0 0.00 0.03 0.00 92 1019.1
20260901021328 20 172 0.0 0.0 0.00 0.03 0.00 92 1019.2
20260901020317 20 172 0.0 0.0 0.00 0.03 0.00 92 1019.2
20260901015334 20 172 0.0 0.0 0.00 0.03 0.00 92 1019.3
20260901014322 20 172 0.0 0.0 0.00 0.03 0.00 91 1019.4
20260901013330 20 172 0.0 0.0 0.00 0.03 0.00 91 1019.4
20260901012347 20 172 0.0 0.0 0.00 0.03 0.00 90 1019.4
20260901011315 20 172 0.0 0.0 0.00 0.03 0.00 90 1019.6
20260901010349 20 172 0.0 0.0 0.00 0.03 0.00 89 1019.4
20260901005347 20 172 0.0 0.0 0.00 0.03 0.00 89 1019.5
20260901004314 20 172 0.0 0.0 0.00 0.03 0.00 89 1019.2
20260901003321 20 172 0.0 0.0 0.00 0.03 0.00 89 1019.2
20260901002329 20 172 0.0 0.0 0.00 0.03 0.00 89 1019.3
20260901001318 20 172 0.0 0.0 0.00 0.03 0.00 89 1019.2
20260901000325 20 172 0.0 0.0 0.00 0.03 0.00 88 1019.3
20260831235315 20 172 0.0 0.0 0.00 0.03 0.00 88 1019.2
20260831234334 20 172 0.0 0.0 0.00 0.03 0.00 88 1019.3
20260831233345 20 172 0.0 0.0 0.00 0.03 0.00 87 1019.4
20260831232313 20 172 0.0 0.0 0.00 0.03 0.00 87 1019.5
20260831231322 20 172 0.0 0.0 0.00 0.03 0.00 87 1019.6
20260831230358 20 172 0.0 0.0 0.00 0.03 0.00 87 1019.7
20260831225347 20 172 0.0 0.0 0.00 0.03 0.00 86 1019.7
20260831224315 21 172 0.0 0.0 0.00 0.03 0.00 86 1019.6
20260831223331 21 172 0.0 0.0 0.00 0.03 0.00 85 1019.8
20260831222319 21 172 0.0 0.0 0.00 0.03 0.00 86 1019.6
20260831221332 21 172 0.0 0.0 0.00 0.03 0.00 86 1019.8
20260831220322 21 172 0.0 0.0 0.00 0.03 0.00 85 1019.5
20260831215333 21 172 0.0 0.0 0.00 0.03 0.00 85 1019.6
20260831214323 21 172 0.0 0.0 0.00 0.03 0.00 85 1019.6
20260831213333 21 172 0.0 0.0 0.00 0.03 0.00 83 1019.6
20260831212320 21 172 0.0 0.0 0.00 0.03 0.00 83 1019.6
20260831211315 21 172 0.0 0.0 0.00 0.03 0.00 82 1019.5
20260831210323 22 172 0.0 0.0 0.00 0.03 0.00 81 1019.6
20260831205340 22 172 0.0 0.0 0.00 0.03 0.00 79 1019.6
20260831204328 22 172 0.0 0.0 0.00 0.03 0.00 78 1019.6
20260831203317 22 172 0.0 0.0 0.00 0.03 0.00 76 1019.5
20260831202325 22 172 0.0 0.0 0.00 0.03 0.00 73 1019.5
20260831201334 22 172 0.0 0.0 0.00 0.03 0.00 72 1019.6
20260831200323 23 172 0.0 0.0 0.00 0.03 0.00 71 1019.8
20260831195311 24 172 0.0 0.0 0.00 0.03 0.00 65 1019.8
20260831194320 24 172 0.0 0.0 0.00 0.03 0.00 67 1020.1
20260831193335 23 172 0.0 0.0 0.00 0.03 0.00 67 1020.2
20260831192327 24 172 0.0 0.0 0.00 0.03 0.00 67 1020.4
20260831191315 23 172 0.0 0.0 0.00 0.03 0.00 67 1020.3
20260831190332 23 172 0.0 0.0 0.00 0.03 0.00 69 1020.5
20260831185327 23 172 0.0 0.0 0.00 0.03 0.00 66 1020.6
20260831184317 23 171 0.0 0.0 0.00 0.03 0.00 68 1020.6
20260831183327 24 171 0.0 3.2 0.00 0.03 0.00 67 1020.4
20260831182337 24 174 0.0 0.0 0.00 0.03 0.00 68 1020.5
20260831181345 23 172 0.0 0.0 0.00 0.03 0.00 71 1020.6
20260831180313 23 172 0.0 0.0 0.00 0.03 0.00 73 1020.7
20260831175322 23 172 0.0 0.0 0.00 0.03 0.00 75 1020.9
20260831174312 24 172 0.0 0.0 0.00 0.03 0.00 75 1020.9
20260831173324 25 172 0.0 1.6 0.00 0.03 0.00 70 1020.8
20260831172340 25 220 0.0 1.6 0.00 0.03 0.00 69 1020.7
20260831171329 25 232 0.0 1.6 0.00 0.03 0.00 70 1020.7
20260831170315 24 232 0.0 1.6 0.00 0.03 0.00 69 1020.8
20260831165351 24 235 0.0 3.2 0.00 0.03 0.00 70 1020.8
20260831164319 24 214 0.0 1.6 0.00 0.03 0.00 69 1020.9
20260831163338 24 229 0.0 1.6 0.00 0.03 0.00 71 1021.0
20260831162324 23 240 0.0 1.6 0.00 0.03 0.00 71 1021.1
20260831161314 23 241 0.0 1.6 0.00 0.03 0.00 69 1021.1
20260831160322 22 240 0.0 3.2 0.00 0.03 0.00 72 1021.2
20260831155330 22 236 0.0 1.6 0.00 0.03 0.00 75 1021.3
20260831154346 22 233 0.0 1.6 0.00 0.03 0.00 75 1021.0
20260831153334 22 233 0.0 1.6 0.00 0.03 0.00 75 1021.2
20260831152323 22 233 0.0 3.2 0.00 0.03 0.00 73 1021.2
20260831151313 22 237 0.0 4.8 0.00 0.03 0.00 76 1021.2
20260831150322 22 244 0.0 1.6 0.00 0.03 0.00 80 1021.1
20260831145311 21 246 0.0 1.6 0.00 0.03 0.00 86 1021.2
20260831144330 21 244 0.0 1.6 0.00 0.03 0.00 85 1021.1
20260831143323 21 244 0.0 1.6 0.00 0.03 0.00 86 1021.3
20260831142354 20 244 0.0 1.6 0.00 0.03 0.00 88 1021.3
20260831141327 20 244 0.0 1.6 0.00 0.03 0.00 89 1021.1
20260831140318 20 244 0.0 1.6 0.00 0.03 0.00 89 1021.0
20260831135326 19 245 0.0 1.6 0.00 0.03 0.00 91 1021.0
20260831134313 19 246 0.0 0.0 0.00 0.03 0.00 94 1021.0
20260831133330 19 246 0.0 1.6 0.00 0.03 0.00 93 1021.1
20260831132318 18 246 0.0 1.6 0.00 0.03 0.00 94 1021.0